Overview Statistics Trail Chart Weather Telemetry Raw packets
 

This is the latest recevied weather packets stored in our database for station/object W3AJR. If no packets are shown the sender has not sent any weather packets the latest 10 day(s).

<< 1 2 3 4 >>
Time Temp. Humidity Pressure Rain* Wind** Luminosity Snow
1788611555 21.11° C 99% 1011.5 hPa 0 mm - 108 W/m² -
1788611255 21.11° C 99% 1011.6 hPa 0 mm - 111 W/m² -
1788610949 21.11° C 99% 1011.5 hPa 0 mm - 100 W/m² -
1788610644 21.11° C 99% 1011.3 hPa 0 mm - 102 W/m² -
1788610341 20.56° C 99% 1011.2 hPa 0 mm - 69 W/m² -
1788610039 20.56° C 99% 1011.3 hPa 0 mm - 33 W/m² -
1788609734 20.56° C 99% 1011.1 hPa 0 mm - 29 W/m² -
1788609434 20.56° C 99% 1011.2 hPa 0 mm - 27 W/m² -
1788609129 20.56° C 99% 1011.1 hPa 0 mm - 39 W/m² -
1788608829 20.56° C 99% 1011 hPa 0 mm - 42 W/m² -
1788608527 20.56° C 99% 1011.1 hPa 0 mm - 46 W/m² -
1788608227 20° C 99% 1011.4 hPa 0 mm - 46 W/m² -
1788607923 20° C 99% 1011.1 hPa 0 mm - 39 W/m² -
1788607623 20° C 99% 1011.1 hPa 0 mm - 37 W/m² -
1788607318 20° C 99% 1010.9 hPa 0 mm - 30 W/m² -
1788607018 20° C 99% 1011 hPa 0 mm - 28 W/m² -
1788606717 20° C 99% 1011.1 hPa 0 mm - 17 W/m² -
1788606416 20° C 99% 1011 hPa 0 mm - 12 W/m² -
1788606112 20° C 99% 1011 hPa 0 mm - 7 W/m² -
1788605807 20° C 99% 1011.1 hPa 0 mm - 6 W/m² -
1788605505 20° C 99% 1010.7 hPa 0 mm - 3 W/m² -
1788605201 20° C 99% 1010.7 hPa 0 mm - 1 W/m² -
1788604896 20° C 99% 1010.6 hPa 0 mm - 0 W/m² -
1788604592 19.44° C 99% 1010.3 hPa 0 mm - 0 W/m² -
1788604288 19.44° C 99% 1010.4 hPa 0 mm - 0 W/m² -

* Rain latest hour (hover to see other rain measurements)
** Current wind speed in m/s (hover to see current wind gust speed)